Location: Vigo di Fassa
(46.4167°N, 11.6667°E)
Time: 15:07:13
(UTC+00:00)

Cosmos 44 Rocket - Pass Details

Date: 03 March 2021
Orbit: 636 x 754 km, 65.1° (Epoch: 14 April)

Event Time Altitude Azimuth Distance (km) Brightness Sun altitude
Rises 18:20:46 0° 320° (NW) 3,211 7.5 -14.3°
Reaches altitude 10° 18:23:13 10° 315° (NW) 2,285 6.7 -14.7°
Maximum altitude 18:28:17 51° 241° (WSW) 945 4.3 -15.6°
Drops below altitude 10° 18:33:17 10° 167° (SSE) 2,251 5.7 -16.4°
Enters shadow 18:35:27 - 162° (SSE) 3,068 6.4 -16.8°
